Station Historical Data
Daily Summary for January 19, 2018 Units:  English    Metric   Both
« Previous Day
Next Day »
Daily Weekly Monthly Yearly Custom
  High: Low: Average:
Temperature: 39.3 °F 26.0 °F 31 °F
Dew Point: 24.8 °F 16.5 °F 20.8 °F
Humidity: 72% 55% 66%
Wind Speed: 24.0mph 2.0mph 9.2mph
Wind Gust: 28.0mph - -
Wind- - SW
Pressure: 30.01 in 29.76 in -
Precipitation: 0.00 in    
Historical Graphs
 
 
Tabular Data for January 19, 2018
Time Temperature Dew Point Pressure Wind Wind Speed Wind Gust Humidity Rainfall Rate (Hourly)
00:04 26.0 °F 16.5 °F 29.99 in SW 10.0 mph 15.0 mph 67% 0.00 in
00:09 26.0 °F 16.5 °F 29.99 in SW 10.0 mph 13.0 mph 67% 0.00 in
00:14 26.0 °F 16.5 °F 29.99 in SSW 11.0 mph 15.0 mph 67% 0.00 in
00:19 26.1 °F 16.6 °F 29.99 in SW 10.0 mph 19.0 mph 67% 0.00 in
00:24 26.2 °F 16.7 °F 29.99 in SW 9.0 mph 19.0 mph 67% 0.00 in
00:29 26.2 °F 16.7 °F 29.99 in SW 8.0 mph 15.0 mph 67% 0.00 in
00:34 26.3 °F 16.8 °F 29.99 in SW 9.0 mph 16.0 mph 67% 0.00 in
00:39 26.3 °F 16.8 °F 29.99 in WSW 9.0 mph 18.0 mph 67% 0.00 in
00:44 26.3 °F 17.2 °F 29.99 in WSW 8.0 mph 18.0 mph 68% 0.00 in
00:49 26.4 °F 17.3 °F 29.99 in WSW 9.0 mph 16.0 mph 68% 0.00 in
00:54 26.5 °F 17.0 °F 29.99 in WSW 10.0 mph 19.0 mph 67% 0.00 in
00:59 26.6 °F 17.5 °F 29.99 in SSW 19.0 mph 19.0 mph 68% 0.00 in
01:04 26.7 °F 17.2 °F 29.98 in SSW 9.0 mph 15.0 mph 67% 0.00 in
01:09 26.7 °F 17.6 °F 29.98 in SW 10.0 mph 17.0 mph 68% 0.00 in
01:14 26.7 °F 17.6 °F 29.98 in WSW 9.0 mph 20.0 mph 68% 0.00 in
01:19 26.7 °F 17.6 °F 29.98 in SW 7.0 mph 19.0 mph 68% 0.00 in
01:24 26.6 °F 17.5 °F 29.98 in West 15.0 mph 22.0 mph 68% 0.00 in
01:29 26.7 °F 17.6 °F 29.98 in WSW 6.0 mph 19.0 mph 68% 0.00 in
01:34 26.7 °F 17.6 °F 29.98 in SW 11.0 mph 26.0 mph 68% 0.00 in
01:39 26.7 °F 17.6 °F 29.98 in SW 11.0 mph 26.0 mph 68% 0.00 in
01:44 26.7 °F 17.6 °F 29.98 in WSW 10.0 mph 20.0 mph 68% 0.00 in
01:49 26.8 °F 17.6 °F 29.98 in WSW 10.0 mph 20.0 mph 68% 0.00 in
01:54 26.9 °F 17.7 °F 29.98 in SW 10.0 mph 19.0 mph 68% 0.00 in
01:59 26.9 °F 17.7 °F 29.98 in WSW 14.0 mph 19.0 mph 68% 0.00 in
02:04 26.8 °F 18.0 °F 29.99 in WSW 10.0 mph 20.0 mph 69% 0.00 in
02:09 26.9 °F 18.1 °F 29.98 in SW 11.0 mph 21.0 mph 69% 0.00 in
02:14 26.9 °F 18.1 °F 29.98 in SW 7.0 mph 21.0 mph 69% 0.00 in
02:19 26.9 °F 18.1 °F 29.99 in SW 11.0 mph 19.0 mph 69% 0.00 in
02:24 26.9 °F 18.1 °F 29.99 in West 14.0 mph 18.0 mph 69% 0.00 in
02:29 26.8 °F 18.0 °F 29.99 in SW 15.0 mph 18.0 mph 69% 0.00 in
02:34 26.9 °F 18.1 °F 29.99 in WSW 9.0 mph 18.0 mph 69% 0.00 in
02:39 26.9 °F 18.1 °F 29.99 in WSW 11.0 mph 21.0 mph 69% 0.00 in
02:44 26.8 °F 18.0 °F 29.99 in WSW 11.0 mph 21.0 mph 69% 0.00 in
02:49 26.9 °F 18.1 °F 29.99 in WSW 12.0 mph 23.0 mph 69% 0.00 in
02:54 26.8 °F 18.0 °F 29.99 in SW 12.0 mph 23.0 mph 69% 0.00 in
02:59 26.8 °F 18.0 °F 29.99 in SW 12.0 mph 23.0 mph 69% 0.00 in
03:04 26.7 °F 17.9 °F 29.99 in WNW 14.0 mph 20.0 mph 69% 0.00 in
03:09 26.7 °F 17.9 °F 29.99 in WSW 10.0 mph 20.0 mph 69% 0.00 in
03:14 26.7 °F 18.2 °F 29.99 in WSW 10.0 mph 19.0 mph 70% 0.00 in
03:19 26.7 °F 18.2 °F 29.99 in WSW 11.0 mph 19.0 mph 70% 0.00 in
03:24 26.6 °F 18.1 °F 29.99 in West 10.0 mph 20.0 mph 70% 0.00 in
03:29 26.6 °F 18.1 °F 29.98 in WSW 7.0 mph 19.0 mph 70% 0.00 in
03:34 26.5 °F 18.0 °F 29.98 in SW 6.0 mph 19.0 mph 70% 0.00 in
03:39 26.4 °F 17.9 °F 29.98 in WSW 10.0 mph 19.0 mph 70% 0.00 in
03:44 26.4 °F 18.3 °F 29.99 in WSW 8.0 mph 17.0 mph 71% 0.00 in
03:49 26.4 °F 18.3 °F 29.98 in WSW 7.0 mph 17.0 mph 71% 0.00 in
03:54 26.4 °F 18.3 °F 29.98 in WSW 10.0 mph 20.0 mph 71% 0.00 in
03:59 26.5 °F 18.4 °F 29.98 in WSW 10.0 mph 20.0 mph 71% 0.00 in
04:04 26.5 °F 18.4 °F 29.98 in WSW 10.0 mph 21.0 mph 71% 0.00 in
04:09 26.6 °F 18.5 °F 29.99 in WSW 10.0 mph 22.0 mph 71% 0.00 in
04:14 26.7 °F 18.6 °F 29.99 in West 5.0 mph 17.0 mph 71% 0.00 in
04:19 26.7 °F 18.6 °F 29.99 in WSW 10.0 mph 22.0 mph 71% 0.00 in
04:24 26.9 °F 18.7 °F 29.99 in SW 10.0 mph 18.0 mph 71% 0.00 in
04:29 26.8 °F 18.7 °F 30.00 in WSW 10.0 mph 18.0 mph 71% 0.00 in
04:34 26.8 °F 19.0 °F 30.00 in SW 9.0 mph 19.0 mph 72% 0.00 in
04:39 26.9 °F 19.1 °F 30.00 in West 12.0 mph 15.0 mph 72% 0.00 in
04:44 26.9 °F 19.1 °F 29.99 in WSW 11.0 mph 14.0 mph 72% 0.00 in
04:49 27.0 °F 19.2 °F 30.00 in SW 10.0 mph 17.0 mph 72% 0.00 in
04:54 26.9 °F 19.1 °F 30.00 in WSW 8.0 mph 18.0 mph 72% 0.00 in
04:59 27.0 °F 19.2 °F 30.00 in WSW 6.0 mph 16.0 mph 72% 0.00 in
05:04 27.1 °F 19.3 °F 30.00 in WSW 6.0 mph 18.0 mph 72% 0.00 in
05:09 27.1 °F 19.3 °F 29.99 in WSW 11.0 mph 16.0 mph 72% 0.00 in
05:14 27.1 °F 19.3 °F 30.00 in WSW 10.0 mph 16.0 mph 72% 0.00 in
05:19 27.1 °F 19.3 °F 30.00 in SW 9.0 mph 19.0 mph 72% 0.00 in
05:24 27.1 °F 19.3 °F 29.99 in WSW 10.0 mph 21.0 mph 72% 0.00 in
05:29 27.1 °F 19.3 °F 29.99 in WSW 9.0 mph 21.0 mph 72% 0.00 in
05:34 27.1 °F 19.3 °F 29.99 in WSW 8.0 mph 19.0 mph 72% 0.00 in
05:39 27.0 °F 19.2 °F 29.99 in WSW 9.0 mph 19.0 mph 72% 0.00 in
05:44 27.0 °F 19.2 °F 29.99 in WSW 9.0 mph 17.0 mph 72% 0.00 in
05:49 27.0 °F 19.2 °F 29.99 in WSW 9.0 mph 17.0 mph 72% 0.00 in
05:54 27.0 °F 19.2 °F 30.00 in WSW 15.0 mph 19.0 mph 72% 0.00 in
05:59 27.0 °F 19.2 °F 29.99 in WSW 10.0 mph 19.0 mph 72% 0.00 in
06:04 27.1 °F 19.3 °F 30.00 in SW 10.0 mph 16.0 mph 72% 0.00 in
06:09 27.1 °F 19.3 °F 30.00 in West 13.0 mph 16.0 mph 72% 0.00 in
06:14 27.2 °F 19.0 °F 30.00 in SW 9.0 mph 18.0 mph 71% 0.00 in
06:19 27.2 °F 19.4 °F 29.99 in SW 11.0 mph 19.0 mph 72% 0.00 in
06:24 27.2 °F 19.4 °F 29.99 in WSW 9.0 mph 19.0 mph 72% 0.00 in
06:29 27.2 °F 19.4 °F 29.99 in WSW 10.0 mph 19.0 mph 72% 0.00 in
06:34 27.2 °F 19.4 °F 29.99 in WSW 10.0 mph 17.0 mph 72% 0.00 in
06:39 27.2 °F 19.0 °F 29.99 in WSW 10.0 mph 19.0 mph 71% 0.00 in
06:44 27.2 °F 19.0 °F 29.99 in WSW 11.0 mph 20.0 mph 71% 0.00 in
06:49 27.2 °F 19.0 °F 29.99 in WSW 10.0 mph 23.0 mph 71% 0.00 in
06:54 27.2 °F 19.0 °F 29.99 in West 9.0 mph 18.0 mph 71% 0.00 in
06:59 27.2 °F 19.0 °F 30.00 in West 6.0 mph 17.0 mph 71% 0.00 in
07:04 27.2 °F 19.0 °F 30.00 in WSW 8.0 mph 17.0 mph 71% 0.00 in
07:09 27.2 °F 19.0 °F 30.00 in SW 11.0 mph 17.0 mph 71% 0.00 in
07:14 27.2 °F 19.0 °F 30.00 in WSW 10.0 mph 19.0 mph 71% 0.00 in
07:19 27.2 °F 19.0 °F 30.01 in SW 13.0 mph 19.0 mph 71% 0.00 in
07:24 27.2 °F 19.0 °F 30.01 in WSW 13.0 mph 23.0 mph 71% 0.00 in
07:29 27.2 °F 19.0 °F 30.01 in West 7.0 mph 17.0 mph 71% 0.00 in
07:34 27.2 °F 19.0 °F 30.01 in SW 11.0 mph 16.0 mph 71% 0.00 in
07:39 27.2 °F 19.0 °F 30.00 in SW 10.0 mph 20.0 mph 71% 0.00 in
07:44 27.2 °F 19.0 °F 30.00 in SW 11.0 mph 20.0 mph 71% 0.00 in
07:49 27.2 °F 19.0 °F 30.01 in WSW 11.0 mph 19.0 mph 71% 0.00 in
07:54 27.2 °F 19.0 °F 30.01 in WSW 11.0 mph 18.0 mph 71% 0.00 in
07:59 27.2 °F 19.0 °F 30.01 in SW 9.0 mph 14.0 mph 71% 0.00 in
08:04 27.1 °F 18.9 °F 30.00 in WSW 9.0 mph 17.0 mph 71% 0.00 in
08:09 27.2 °F 19.0 °F 30.00 in WSW 10.0 mph 17.0 mph 71% 0.00 in
08:14 27.1 °F 18.9 °F 30.00 in SW 10.0 mph 20.0 mph 71% 0.00 in
08:19 27.1 °F 18.9 °F 30.00 in SW 10.0 mph 20.0 mph 71% 0.00 in
08:24 27.2 °F 19.0 °F 30.00 in WSW 11.0 mph 16.0 mph 71% 0.00 in
08:29 27.2 °F 19.4 °F 30.00 in WSW 13.0 mph 16.0 mph 72% 0.00 in
08:34 27.2 °F 19.0 °F 30.00 in WSW 9.0 mph 21.0 mph 71% 0.00 in
08:39 27.2 °F 19.0 °F 29.99 in SW 10.0 mph 21.0 mph 71% 0.00 in
08:44 27.3 °F 19.1 °F 29.99 in SW 10.0 mph 18.0 mph 71% 0.00 in
08:49 27.3 °F 19.1 °F 29.99 in SW 9.0 mph 17.0 mph 71% 0.00 in
08:54 27.4 °F 18.9 °F 29.99 in SW 8.0 mph 16.0 mph 70% 0.00 in
08:59 27.4 °F 18.9 °F 29.99 in WSW 9.0 mph 18.0 mph 70% 0.00 in
09:04 27.6 °F 19.1 °F 30.00 in SW 11.0 mph 14.0 mph 70% 0.00 in
09:09 27.5 °F 18.7 °F 29.99 in SW 11.0 mph 22.0 mph 69% 0.00 in
09:14 27.6 °F 18.8 °F 29.99 in SW 10.0 mph 22.0 mph 69% 0.00 in
09:19 27.6 °F 18.8 °F 30.00 in SW 11.0 mph 15.0 mph 69% 0.00 in
09:24 27.7 °F 18.5 °F 30.00 in WSW 13.0 mph 20.0 mph 68% 0.00 in
09:29 27.7 °F 18.5 °F 30.00 in West 10.0 mph 17.0 mph 68% 0.00 in
09:34 27.8 °F 18.6 °F 29.99 in WSW 5.0 mph 15.0 mph 68% 0.00 in
09:39 27.9 °F 18.4 °F 29.99 in WSW 13.0 mph 15.0 mph 67% 0.00 in
09:44 28.0 °F 18.1 °F 29.99 in SW 9.0 mph 16.0 mph 66% 0.00 in
09:49 28.0 °F 18.1 °F 30.00 in SW 10.0 mph 18.0 mph 66% 0.00 in
09:54 28.2 °F 18.3 °F 30.00 in SW 9.0 mph 19.0 mph 66% 0.00 in
09:59 28.1 °F 18.2 °F 30.00 in SW 9.0 mph 19.0 mph 66% 0.00 in
10:04 28.0 °F 17.7 °F 30.00 in SSW 8.0 mph 16.0 mph 65% 0.00 in
10:09 28.1 °F 18.2 °F 30.00 in South 4.0 mph 19.0 mph 66% 0.00 in
10:14 28.3 °F 18.4 °F 29.99 in SW 7.0 mph 15.0 mph 66% 0.00 in
10:19 28.3 °F 18.0 °F 29.99 in SW 9.0 mph 20.0 mph 65% 0.00 in
10:24 28.3 °F 18.4 °F 30.00 in SW 10.0 mph 20.0 mph 66% 0.00 in
10:29 28.5 °F 18.2 °F 30.00 in SW 10.0 mph 20.0 mph 65% 0.00 in
10:34 28.5 °F 18.2 °F 30.00 in South 7.0 mph 19.0 mph 65% 0.00 in
10:39 28.7 °F 18.4 °F 30.00 in WSW 10.0 mph 18.0 mph 65% 0.00 in
10:44 28.7 °F 18.4 °F 30.00 in WSW 15.0 mph 17.0 mph 65% 0.00 in
10:49 28.7 °F 18.4 °F 30.00 in SW 9.0 mph 21.0 mph 65% 0.00 in
10:54 29.0 °F 18.7 °F 30.00 in SW 10.0 mph 21.0 mph 65% 0.00 in
10:59 29.2 °F 18.5 °F 30.00 in SW 10.0 mph 19.0 mph 64% 0.00 in
11:04 29.4 °F 18.7 °F 29.99 in SSW 6.0 mph 16.0 mph 64% 0.00 in
11:09 29.5 °F 18.8 °F 29.99 in South 15.0 mph 17.0 mph 64% 0.00 in
11:14 29.5 °F 18.8 °F 29.99 in SSW 8.0 mph 24.0 mph 64% 0.00 in
11:19 29.4 °F 18.7 °F 29.98 in WSW 16.0 mph 22.0 mph 64% 0.00 in
11:24 29.6 °F 19.3 °F 29.98 in SSW 10.0 mph 20.0 mph 65% 0.00 in
11:29 29.7 °F 19.4 °F 29.98 in SW 10.0 mph 20.0 mph 65% 0.00 in
11:34 29.8 °F 19.5 °F 29.98 in SW 10.0 mph 18.0 mph 65% 0.00 in
11:39 30.1 °F 20.1 °F 29.98 in SW 11.0 mph 22.0 mph 66% 0.00 in
11:44 30.2 °F 20.2 °F 29.98 in SW 10.0 mph 22.0 mph 66% 0.00 in
11:49 30.4 °F 20.4 °F 29.98 in SW 9.0 mph 22.0 mph 66% 0.00 in
11:54 30.4 °F 20.0 °F 29.98 in SW 10.0 mph 22.0 mph 65% 0.00 in
11:59 30.4 °F 20.0 °F 29.97 in SW 7.0 mph 24.0 mph 65% 0.00 in
12:04 30.5 °F 19.8 °F 29.97 in WSW 7.0 mph 23.0 mph 64% 0.00 in
12:09 30.6 °F 20.2 °F 29.97 in SW 10.0 mph 22.0 mph 65% 0.00 in
12:14 30.7 °F 20.3 °F 29.96 in SW 8.0 mph 24.0 mph 65% 0.00 in
12:19 30.8 °F 20.4 °F 29.95 in SW 9.0 mph 20.0 mph 65% 0.00 in
12:24 31.1 °F 20.7 °F 29.95 in SSW 11.0 mph 20.0 mph 65% 0.00 in
12:29 31.2 °F 20.8 °F 29.95 in WSW 11.0 mph 21.0 mph 65% 0.00 in
12:34 31.2 °F 20.8 °F 29.95 in SW 11.0 mph 24.0 mph 65% 0.00 in
12:39 31.3 °F 20.9 °F 29.94 in SW 13.0 mph 24.0 mph 65% 0.00 in
12:44 31.3 °F 20.5 °F 29.94 in SW 13.0 mph 24.0 mph 64% 0.00 in
12:49 31.4 °F 21.0 °F 29.93 in WSW 11.0 mph 28.0 mph 65% 0.00 in
12:54 31.5 °F 21.1 °F 29.93 in West 12.0 mph 18.0 mph 65% 0.00 in
12:59 31.5 °F 20.7 °F 29.94 in SW 24.0 mph 24.0 mph 64% 0.00 in
13:04 31.7 °F 21.3 °F 29.94 in SSW 8.0 mph 23.0 mph 65% 0.00 in
13:09 31.9 °F 21.1 °F 29.93 in SW 11.0 mph 24.0 mph 64% 0.00 in
13:14 32.0 °F 21.2 °F 29.94 in SW 11.0 mph 21.0 mph 64% 0.00 in
13:19 32.3 °F 21.5 °F 29.93 in WSW 8.0 mph 22.0 mph 64% 0.00 in
13:24 32.2 °F 21.4 °F 29.93 in SSW 13.0 mph 19.0 mph 64% 0.00 in
13:29 32.4 °F 21.6 °F 29.93 in WSW 11.0 mph 17.0 mph 64% 0.00 in
13:34 32.5 °F 21.7 °F 29.93 in WSW 12.0 mph 19.0 mph 64% 0.00 in
13:39 32.5 °F 21.3 °F 29.93 in SW 11.0 mph 21.0 mph 63% 0.00 in
13:44 32.4 °F 21.2 °F 29.92 in SW 12.0 mph 21.0 mph 63% 0.00 in
13:49 32.5 °F 21.7 °F 29.92 in SW 12.0 mph 21.0 mph 64% 0.00 in
13:54 32.7 °F 21.9 °F 29.92 in WSW 14.0 mph 18.0 mph 64% 0.00 in
13:59 32.8 °F 21.6 °F 29.92 in NW 12.0 mph 18.0 mph 63% 0.00 in
14:04 32.8 °F 21.6 °F 29.92 in SW 6.0 mph 26.0 mph 63% 0.00 in
14:09 33.0 °F 21.4 °F 29.92 in SSW 12.0 mph 17.0 mph 62% 0.00 in
14:14 33.2 °F 22.0 °F 29.92 in SW 10.0 mph 17.0 mph 63% 0.00 in
14:19 33.3 °F 21.3 °F 29.92 in SW 11.0 mph 23.0 mph 61% 0.00 in
14:24 33.4 °F 21.4 °F 29.91 in SW 12.0 mph 23.0 mph 61% 0.00 in
14:29 33.5 °F 21.5 °F 29.91 in SW 18.0 mph 20.0 mph 61% 0.00 in
14:34 33.7 °F 21.7 °F 29.91 in WSW 13.0 mph 19.0 mph 61% 0.00 in
14:39 33.8 °F 21.4 °F 29.90 in West 14.0 mph 22.0 mph 60% 0.01 in
14:44 33.8 °F 21.4 °F 29.90 in West 11.0 mph 25.0 mph 60% 0.01 in
14:54 34.0 °F 22.0 °F 29.90 in SW 11.0 mph 21.0 mph 61% 0.01 in
14:59 34.0 °F 22.0 °F 29.90 in SW 11.0 mph 21.0 mph 61% 0.01 in
15:04 34.0 °F 22.0 °F 29.90 in SW 8.0 mph 22.0 mph 61% 0.01 in
15:09 34.0 °F 22.3 °F 29.90 in SW 7.0 mph 17.0 mph 62% 0.01 in
15:14 34.0 °F 22.3 °F 29.89 in SW 8.0 mph 18.0 mph 62% 0.01 in
15:19 34.0 °F 22.3 °F 29.89 in SW 9.0 mph 18.0 mph 62% 0.01 in
15:24 34.0 °F 22.0 °F 29.89 in SW 9.0 mph 18.0 mph 61% 0.01 in
15:29 33.9 °F 22.2 °F 29.89 in SW 9.0 mph 18.0 mph 62% 0.01 in
15:34 33.9 °F 22.6 °F 29.90 in SW 8.0 mph 16.0 mph 63% 0.01 in
15:39 33.9 °F 22.6 °F 29.90 in SW 7.0 mph 14.0 mph 63% 0.00 in
15:44 33.8 °F 22.5 °F 29.90 in WSW 3.0 mph 14.0 mph 63% 0.00 in
15:49 33.7 °F 22.8 °F 29.89 in SW 4.0 mph 14.0 mph 64% 0.00 in
15:54 33.7 °F 22.8 °F 29.89 in SSW 8.0 mph 13.0 mph 64% 0.00 in
15:59 33.5 °F 22.6 °F 29.89 in SSW 4.0 mph 11.0 mph 64% 0.00 in
16:04 33.4 °F 22.5 °F 29.88 in South 6.0 mph 15.0 mph 64% 0.00 in
16:09 33.3 °F 22.8 °F 29.88 in SSW 4.0 mph 15.0 mph 65% 0.00 in
16:14 33.5 °F 22.6 °F 29.88 in West 8.0 mph 15.0 mph 64% 0.00 in
16:19 33.5 °F 22.6 °F 29.88 in SSW 6.0 mph 19.0 mph 64% 0.00 in
16:24 33.6 °F 22.7 °F 29.88 in SW 8.0 mph 19.0 mph 64% 0.00 in
16:29 33.6 °F 22.7 °F 29.87 in SW 8.0 mph 17.0 mph 64% 0.00 in
16:34 33.6 °F 22.7 °F 29.86 in SW 8.0 mph 17.0 mph 64% 0.00 in
16:39 33.7 °F 22.8 °F 29.86 in SW 8.0 mph 14.0 mph 64% 0.00 in
16:44 33.7 °F 22.8 °F 29.86 in SW 7.0 mph 14.0 mph 64% 0.00 in
16:49 33.7 °F 22.8 °F 29.86 in SW 8.0 mph 16.0 mph 64% 0.00 in
16:54 33.7 °F 23.2 °F 29.86 in WSW 6.0 mph 16.0 mph 65% 0.00 in
16:59 33.6 °F 23.1 °F 29.86 in SW 9.0 mph 17.0 mph 65% 0.00 in
17:04 33.5 °F 23.0 °F 29.86 in SW 9.0 mph 14.0 mph 65% 0.00 in
17:09 33.4 °F 23.3 °F 29.86 in SW 10.0 mph 16.0 mph 66% 0.00 in
17:14 33.3 °F 23.2 °F 29.86 in SW 7.0 mph 13.0 mph 66% 0.00 in
17:19 33.2 °F 23.1 °F 29.86 in WSW 5.0 mph 14.0 mph 66% 0.00 in
17:24 33.2 °F 23.1 °F 29.86 in SW 6.0 mph 12.0 mph 66% 0.00 in
17:29 33.0 °F 23.2 °F 29.86 in SW 3.0 mph 9.0 mph 67% 0.00 in
17:34 32.9 °F 23.1 °F 29.86 in SW 5.0 mph 10.0 mph 67% 0.00 in
17:39 32.8 °F 23.0 °F 29.87 in SW 5.0 mph 10.0 mph 67% 0.00 in
17:44 32.7 °F 23.3 °F 29.87 in WSW 5.0 mph 13.0 mph 68% 0.00 in
17:49 32.8 °F 23.4 °F 29.87 in WSW 6.0 mph 13.0 mph 68% 0.00 in
17:54 32.8 °F 23.4 °F 29.86 in SW 6.0 mph 11.0 mph 68% 0.00 in
17:59 32.8 °F 23.4 °F 29.86 in WSW 5.0 mph 10.0 mph 68% 0.00 in
18:04 32.8 °F 23.4 °F 29.86 in SW 8.0 mph 13.0 mph 68% 0.00 in
18:09 32.9 °F 23.5 °F 29.86 in SW 6.0 mph 13.0 mph 68% 0.00 in
18:14 32.7 °F 23.3 °F 29.86 in SW 5.0 mph 12.0 mph 68% 0.00 in
18:19 32.7 °F 23.6 °F 29.86 in SW 5.0 mph 10.0 mph 69% 0.00 in
18:24 32.7 °F 23.6 °F 29.86 in SW 6.0 mph 13.0 mph 69% 0.00 in
18:29 32.7 °F 23.6 °F 29.86 in SW 6.0 mph 13.0 mph 69% 0.00 in
18:34 32.6 °F 23.6 °F 29.85 in SW 9.0 mph 15.0 mph 69% 0.00 in
18:39 32.6 °F 23.9 °F 29.85 in SSW 4.0 mph 10.0 mph 70% 0.00 in
18:44 32.5 °F 23.8 °F 29.85 in SW 5.0 mph 12.0 mph 70% 0.00 in
18:49 32.4 °F 23.7 °F 29.85 in SSW 4.0 mph 9.0 mph 70% 0.00 in
18:54 32.3 °F 23.6 °F 29.85 in SW 4.0 mph 8.0 mph 70% 0.00 in
18:59 32.1 °F 23.4 °F 29.85 in SSW 3.0 mph 7.0 mph 70% 0.00 in
19:04 32.0 °F 23.7 °F 29.85 in SW 2.0 mph 7.0 mph 71% 0.00 in
19:09 31.9 °F 23.6 °F 29.85 in SSW 4.0 mph 6.0 mph 71% 0.00 in
19:14 31.8 °F 23.5 °F 29.85 in SSW 3.0 mph 6.0 mph 71% 0.00 in
19:19 31.9 °F 23.6 °F 29.85 in SSW 3.0 mph 7.0 mph 71% 0.00 in
19:24 32.0 °F 23.3 °F 29.85 in SSW 4.0 mph 10.0 mph 70% 0.00 in
19:29 32.3 °F 23.6 °F 29.84 in SW 4.0 mph 10.0 mph 70% 0.00 in
19:34 32.8 °F 23.4 °F 29.84 in SW 5.0 mph 10.0 mph 68% 0.00 in
19:39 33.3 °F 23.9 °F 29.85 in SW 7.0 mph 9.0 mph 68% 0.00 in
19:44 33.7 °F 23.5 °F 29.84 in South 6.0 mph 12.0 mph 66% 0.00 in
19:49 34.3 °F 23.7 °F 29.84 in SW 8.0 mph 12.0 mph 65% 0.00 in
19:54 34.6 °F 24.0 °F 29.84 in SW 3.0 mph 11.0 mph 65% 0.00 in
19:59 35.0 °F 24.0 °F 29.84 in SW 10.0 mph 14.0 mph 64% 0.00 in
20:04 35.3 °F 24.0 °F 29.84 in SSW 8.0 mph 13.0 mph 63% 0.00 in
20:09 35.6 °F 23.9 °F 29.84 in SSW 7.0 mph 14.0 mph 62% 0.00 in
20:14 35.9 °F 24.1 °F 29.84 in SSW 6.0 mph 14.0 mph 62% 0.00 in
20:19 36.1 °F 23.9 °F 29.84 in SW 7.0 mph 14.0 mph 61% 0.00 in
20:24 36.3 °F 23.7 °F 29.84 in SW 7.0 mph 14.0 mph 60% 0.00 in
20:29 36.4 °F 23.8 °F 29.84 in SW 7.0 mph 15.0 mph 60% 0.00 in
20:34 36.7 °F 24.1 °F 29.83 in SW 8.0 mph 20.0 mph 60% 0.00 in
20:39 36.8 °F 23.8 °F 29.83 in SW 8.0 mph 20.0 mph 59% 0.00 in
20:44 37.0 °F 24.0 °F 29.83 in SW 8.0 mph 18.0 mph 59% 0.00 in
20:49 37.1 °F 24.1 °F 29.83 in SSW 5.0 mph 12.0 mph 59% 0.00 in
20:54 37.3 °F 23.9 °F 29.83 in SW 11.0 mph 14.0 mph 58% 0.00 in
20:59 37.5 °F 23.6 °F 29.82 in SW 8.0 mph 16.0 mph 57% 0.00 in
21:04 37.7 °F 23.8 °F 29.82 in WSW 8.0 mph 18.0 mph 57% 0.00 in
21:09 37.7 °F 24.2 °F 29.82 in WSW 11.0 mph 11.0 mph 58% 0.00 in
21:14 37.9 °F 24.0 °F 29.82 in South 10.0 mph 20.0 mph 57% 0.00 in
21:19 38.0 °F 24.1 °F 29.81 in SW 8.0 mph 14.0 mph 57% 0.00 in
21:24 38.1 °F 23.8 °F 29.80 in South 10.0 mph 15.0 mph 56% 0.00 in
21:29 38.2 °F 24.3 °F 29.80 in SSW 7.0 mph 15.0 mph 57% 0.00 in
21:34 38.1 °F 24.2 °F 29.79 in SW 7.0 mph 16.0 mph 57% 0.00 in
21:39 38.0 °F 24.1 °F 29.79 in SSW 7.0 mph 16.0 mph 57% 0.00 in
21:44 38.2 °F 23.9 °F 29.79 in SW 8.0 mph 21.0 mph 56% 0.00 in
21:49 38.4 °F 24.1 °F 29.79 in SW 10.0 mph 23.0 mph 56% 0.00 in
21:54 38.5 °F 24.1 °F 29.79 in SSW 10.0 mph 23.0 mph 56% 0.00 in
21:59 38.6 °F 24.2 °F 29.78 in SSW 13.0 mph 22.0 mph 56% 0.00 in
22:04 38.6 °F 24.2 °F 29.79 in SSW 6.0 mph 18.0 mph 56% 0.00 in
22:09 38.7 °F 24.3 °F 29.79 in SW 12.0 mph 15.0 mph 56% 0.00 in
22:14 38.8 °F 24.4 °F 29.79 in WSW 9.0 mph 19.0 mph 56% 0.00 in
22:19 38.8 °F 24.4 °F 29.79 in SSW 13.0 mph 20.0 mph 56% 0.00 in
22:24 38.9 °F 24.5 °F 29.79 in WSW 7.0 mph 19.0 mph 56% 0.00 in
22:29 38.9 °F 24.5 °F 29.78 in SSW 8.0 mph 21.0 mph 56% 0.00 in
22:34 38.9 °F 24.5 °F 29.78 in SW 9.0 mph 21.0 mph 56% 0.00 in
22:39 38.9 °F 24.5 °F 29.79 in SW 8.0 mph 20.0 mph 56% 0.00 in
22:44 39.0 °F 24.2 °F 29.79 in SW 9.0 mph 20.0 mph 55% 0.00 in
22:49 39.2 °F 24.4 °F 29.79 in SW 11.0 mph 20.0 mph 55% 0.00 in
22:54 39.3 °F 24.5 °F 29.78 in SW 9.0 mph 18.0 mph 55% 0.00 in
22:59 39.3 °F 24.5 °F 29.77 in SW 10.0 mph 19.0 mph 55% 0.00 in
23:04 39.2 °F 24.4 °F 29.77 in SW 18.0 mph 22.0 mph 55% 0.00 in
23:09 39.2 °F 24.4 °F 29.77 in SW 11.0 mph 22.0 mph 55% 0.00 in
23:14 39.1 °F 24.3 °F 29.76 in SW 11.0 mph 22.0 mph 55% 0.01 in
23:19 39.0 °F 24.6 °F 29.77 in WSW 9.0 mph 20.0 mph 56% 0.01 in
23:24 38.9 °F 24.5 °F 29.77 in South 3.0 mph 20.0 mph 56% 0.01 in
23:29 39.0 °F 24.6 °F 29.76 in SW 12.0 mph 24.0 mph 56% 0.01 in
23:34 39.1 °F 24.7 °F 29.76 in WSW 7.0 mph 21.0 mph 56% 0.01 in
23:39 39.2 °F 24.8 °F 29.76 in SW 11.0 mph 21.0 mph 56% 0.01 in
23:44 39.3 °F 24.5 °F 29.76 in SW 11.0 mph 25.0 mph 55% 0.01 in
23:49 39.2 °F 24.4 °F 29.76 in SW 12.0 mph 25.0 mph 55% 0.01 in
23:54 39.1 °F 24.3 °F 29.76 in SW 11.0 mph 21.0 mph 55% 0.01 in
23:59 39.0 °F 24.6 °F 29.76 in WSW 17.0 mph 20.0 mph 56% 0.01 in
Buffalo, New York, USA
Compliments of Weather Underground - 2.5 mb